Weather History for KABE - August, 2014

Change the Weather History Date:

Friday, August 1, 2014

  Actual Average Record
Temperature  
Mean Temperature 73 °F 73 °F  
Max Temperature 84 °F 84 °F 98 °F (1955)
Min Temperature 62 °F 63 °F 52 °F (1964)
Degree Days  
Heating Degree Days 0 0  
Month to date heating degree days 0 0  
Since 1 June heating degree days 4 36  
Since 1 July heating degree days 0 3  
Cooling Degree Days 8 8  
Month to date cooling degree days 8 8  
Year to date cooling degree days 508 473  
Since 1 June cooling degree days 469 428  
Growing Degree Days 23 (Base 50)    
Moisture  
Dew Point 64 °F    
Average Humidity 72    
Maximum Humidity 93    
Minimum Humidity 51    
Precipitation  
Precipitation 0.07 in 0.14 in 2.10 in (1925)
Month to date precipitation 0.07 0.14  
Year to date precipitation 32.09 26.22  
Snow  
Snow 0.00 in 0.00 in 0.00 in (2002)
Month to date snowfall 0.0 0.0  
Since 1 June snowfall 0.0 0.0  
Since 1 July snowfall 0.0 0.0  
Snow Depth 0.00 in    
Sea Level Pressure  
Sea Level Pressure 30.18 in    
Wind  
Wind Speed 4 mph (NE)    
Max Wind Speed 18 mph    
Max Gust Speed 25 mph    
Visibility 7 miles    
Events Rain    
T = Trace of Precipitation, MM = Missing Value Source: NWS Daily Summary

Daily Weather History Graph

Daily Weather History Graph

Search for Another Location

Airport or City:

Trip Planner

Search our weather history database for the weather conditions in past years. The results will help you decide how hot, cold, wet, or windy it might be!

Date:

Astronomy

Aug. 01, 2014 Rise Set
Actual Time 5:58 AM EDT 8:17 PM EDT
Civil Twilight 5:27 AM EDT 8:47 PM EDT
Nautical Twilight 4:49 AM EDT 9:25 PM EDT
Astronomical Twilight 4:08 AM EDT 10:06 PM EDT
Moon 11:22 AM EDT 10:58 PM EDT
Length of Visible Light 15h 19m
Length of Day
14h 18m
Waxing Crescent, 27% of the Moon is Illuminated
Aug 1
Waxing Crescent
Aug 3
First Quarter
Aug 10
Full
Aug 17
Last Quarter
Aug 25
New

Hourly Weather History & Observations

Time (EDT) Temp. Heat Index Dew Point Humidity Pressure Visibility Wind Dir Wind Speed Gust Speed Precip Events Conditions
12:51 AM 64.9 °F - 62.1 °F 90% 30.14 in 8.0 mi NNW 3.5 mph - N/A   Mostly Cloudy
1:51 AM 64.9 °F - 61.0 °F 87% 30.15 in 7.0 mi NNW 5.8 mph - N/A   Clear
2:51 AM 64.9 °F - 61.0 °F 87% 30.14 in 7.0 mi Calm Calm - N/A   Clear
3:51 AM 64.0 °F - 61.0 °F 90% 30.14 in 6.0 mi Calm Calm - N/A   Scattered Clouds
4:51 AM 63.0 °F - 60.1 °F 90% 30.15 in 7.0 mi East 3.5 mph - N/A   Clear
5:51 AM 63.0 °F - 60.1 °F 90% 30.16 in 6.0 mi ENE 4.6 mph - N/A   Clear
6:16 AM 64.4 °F - 60.8 °F 88% 30.17 in 5.0 mi Calm Calm - N/A   Mostly Cloudy
6:51 AM 66.0 °F - 62.1 °F 87% 30.17 in 5.0 mi NNE 3.5 mph - N/A   Overcast
7:51 AM 69.1 °F - 64.0 °F 84% 30.19 in 4.0 mi NNW 3.5 mph - N/A   Haze
8:51 AM 72.0 °F - 66.0 °F 81% 30.19 in 4.0 mi Calm Calm - N/A   Haze
8:58 AM 73.4 °F - 66.2 °F 78% 30.19 in 5.0 mi Calm Calm - N/A   Haze
9:41 AM 73.4 °F - 66.2 °F 78% 30.19 in 6.0 mi Calm Calm - N/A   Haze
9:51 AM 73.9 °F - 66.9 °F 79% 30.18 in 6.0 mi WSW 3.5 mph - N/A   Haze
10:51 AM 78.8 °F - 66.2 °F 65% 30.20 in 7.0 mi Calm Calm - N/A   Overcast
11:51 AM 78.1 °F - 68.0 °F 71% 30.20 in 7.0 mi Variable 4.6 mph - N/A   Overcast
12:51 PM 82.0 °F 84.5 °F 66.9 °F 60% 30.19 in 8.0 mi Variable 3.5 mph - N/A   Scattered Clouds
1:51 PM 82.0 °F 84.1 °F 66.0 °F 58% 30.17 in 9.0 mi South 5.8 mph - N/A   Scattered Clouds
2:51 PM 84.0 °F 85.4 °F 64.0 °F 51% 30.16 in 10.0 mi South 9.2 mph - N/A   Scattered Clouds
3:51 PM 81.0 °F 82.2 °F 63.0 °F 54% 30.16 in 10.0 mi SSE 8.1 mph - N/A   Clear
4:51 PM 78.8 °F - 64.4 °F 61% 30.18 in 10.0 mi ESE 15.0 mph 20.7 mph N/A   Mostly Cloudy
5:51 PM 72.0 °F - 63.0 °F 73% 30.20 in 10.0 mi South 10.4 mph 25.3 mph N/A   Overcast
6:10 PM 69.8 °F - 64.4 °F 83% 30.20 in 8.0 mi West 10.4 mph - 0.00 in Rain Light Rain
6:51 PM 69.1 °F - 64.0 °F 84% 30.20 in 4.0 mi West 3.5 mph - 0.05 in Rain Light Rain
7:51 PM 68.0 °F - 63.0 °F 84% 30.19 in 10.0 mi Calm Calm - 0.02 in   Overcast
8:51 PM 69.1 °F - 64.0 °F 84% 30.17 in 9.0 mi East 5.8 mph - N/A   Overcast
9:51 PM 68.0 °F - 64.9 °F 90% 30.21 in 6.0 mi Calm Calm - N/A   Overcast
10:51 PM 66.9 °F - 64.0 °F 90% 30.19 in 6.0 mi Calm Calm - N/A   Mostly Cloudy
11:29 PM 69.8 °F - 64.4 °F 83% 30.20 in 7.0 mi NE 3.5 mph - N/A   Overcast
11:38 PM 66.2 °F - 64.4 °F 94% 30.20 in 6.0 mi Calm Calm - N/A   Overcast
11:51 PM 66.9 °F - 64.0 °F 90% 30.19 in 6.0 mi North 3.5 mph - N/A   Overcast